Alma, GA

5:47 AM EDT on July 24, 2017 (GMT -0400)
Bacon County

Weather History for KAMG - October, 2012

Change the Weather History Date:

Thursday, October 25, 2012

  Actual Average Record
Temperature  
Mean Temperature 76 °F 66 °F  
Max Temperature 86 °F 77 °F 87 °F (1951)
Min Temperature 66 °F 54 °F 31 °F (1962)
Degree Days  
Heating Degree Days 0 3  
Month to date heating degree days 6 29  
Since 1 July heating degree days 6 31  
Cooling Degree Days 11 3  
Month to date cooling degree days 147 139  
Year to date cooling degree days 2634 2409  
Growing Degree Days 25 (Base 50)    
Moisture  
Dew Point 64 °F    
Average Humidity 70    
Maximum Humidity 93    
Minimum Humidity 47    
Precipitation  
Precipitation T in 0.08 in 0.34 in (1981)
Month to date precipitation 0.37 2.53  
Year to date precipitation 33.35 40.38  
Snow  
Snow 0.00 in 0.00 in 0.00 in ()
Month to date snowfall 0.0 0.0  
Since 1 July snowfall 0.0 0.0  
Since 1 September snowfall 0.0 0.0  
Snow Depth 0.00 in    
Sea Level Pressure  
Sea Level Pressure 30.02 in    
Wind  
Wind Speed 6 mph (ENE)    
Max Wind Speed 15 mph    
Max Gust Speed 22 mph    
Visibility 7 miles    
Events      
T = Trace of Precipitation, MM = Missing Value Source: NWS Daily Summary

Daily Weather History Graph

Daily Weather History Graph

Search for Another Location

Airport or City:

Trip Planner

Search our weather history database for the weather conditions in past years. The results will help you decide how hot, cold, wet, or windy it might be!

Date:

Astronomy

Oct. 25, 2012 Rise Set
Actual Time 7:40 AM EDT 6:46 PM EDT
Civil Twilight 7:15 AM EDT 7:11 PM EDT
Nautical Twilight 6:47 AM EDT 7:40 PM EDT
Astronomical Twilight 6:19 AM EDT 8:08 PM EDT
Moon 4:20 PM EDT (10/25) 3:49 AM EDT (10/25)
Length of Visible Light 11h 55m
Length of Day
11h 05m
Waxing Gibbous, 84% of the Moon is Illuminated
Oct 25
Waxing Gibbous
Oct 29
Full
Nov 6
Last Quarter
Nov 13
New
Nov 20
First Quarter

Hourly Weather History & Observations

Time (EDT) Temp. Heat Index Dew Point Humidity Pressure Visibility Wind Dir Wind Speed Gust Speed Precip Events Conditions
12:53 AM 66.0 °F - 63.0 °F 90% 30.05 in 10.0 mi Calm Calm - N/A   Clear
1:53 AM 66.0 °F - 63.0 °F 90% 30.04 in 10.0 mi ENE 4.6 mph - N/A   Scattered Clouds
2:53 AM 66.0 °F - 63.0 °F 90% 30.02 in 10.0 mi Variable 4.6 mph - N/A   Clear
3:53 AM 68.0 °F - 64.9 °F 90% 30.01 in 10.0 mi NE 4.6 mph - N/A   Overcast
4:53 AM 68.0 °F - 64.9 °F 90% 30.01 in 9.0 mi Variable 3.5 mph - N/A   Clear
5:53 AM 66.9 °F - 64.0 °F 90% 30.01 in 8.0 mi NE 3.5 mph - N/A   Partly Cloudy
6:53 AM 66.0 °F - 64.0 °F 93% 30.02 in 7.0 mi NE 4.6 mph - N/A   Partly Cloudy
7:30 AM 66.2 °F - 64.4 °F 94% 30.02 in 7.0 mi Variable 4.6 mph - N/A   Partly Cloudy
7:53 AM 66.9 °F - 64.9 °F 93% 30.02 in 6.0 mi ENE 6.9 mph - N/A   Mostly Cloudy
8:19 AM 66.2 °F - 64.4 °F 94% 30.04 in 1.8 mi ENE 5.8 mph - N/A   Overcast
8:25 AM 66.2 °F - 64.4 °F 94% 30.04 in 0.8 mi ENE 6.9 mph - N/A   Overcast
8:53 AM 66.9 °F - 64.9 °F 93% 30.04 in 0.8 mi Variable 5.8 mph - N/A   Overcast
9:04 AM 66.2 °F - 64.4 °F 94% 30.05 in 1.2 mi Variable 3.5 mph - N/A   Overcast
9:16 AM 66.2 °F - 64.4 °F 94% 30.05 in 2.5 mi Variable 4.6 mph - N/A   Overcast
9:25 AM 68.0 °F - 66.2 °F 94% 30.05 in 3.0 mi ENE 5.8 mph - N/A   Overcast
9:34 AM 69.8 °F - 66.2 °F 88% 30.05 in 4.0 mi Variable 3.5 mph - N/A   Overcast
9:53 AM 71.1 °F - 66.0 °F 84% 30.05 in 5.0 mi ENE 5.8 mph - N/A   Haze
10:24 AM 73.4 °F - 66.2 °F 78% 30.05 in 10.0 mi ENE 6.9 mph - N/A   Mostly Cloudy
10:53 AM 77.0 °F - 66.9 °F 71% 30.05 in 10.0 mi Variable 5.8 mph - N/A   Mostly Cloudy
1:53 PM 82.9 °F 83.3 °F 61.0 °F 47% 29.98 in 10.0 mi ENE 8.1 mph 16.1 mph N/A   Mostly Cloudy
2:53 PM 84.9 °F 85.4 °F 62.1 °F 46% 29.96 in 10.0 mi East 8.1 mph 16.1 mph N/A   Mostly Cloudy
3:53 PM 82.0 °F 82.7 °F 61.0 °F 49% 29.96 in 10.0 mi East 6.9 mph - N/A   Scattered Clouds
4:53 PM 81.0 °F 81.9 °F 62.1 °F 52% 29.96 in 10.0 mi ESE 9.2 mph 18.4 mph 0.00 in   Scattered Clouds
5:53 PM 80.1 °F 81.2 °F 62.1 °F 54% 29.97 in 10.0 mi East 8.1 mph - N/A   Clear
6:53 PM 77.0 °F - 63.0 °F 62% 29.99 in 10.0 mi ENE 3.5 mph - N/A   Clear
7:53 PM 73.9 °F - 64.0 °F 71% 30.00 in 10.0 mi East 4.6 mph - N/A   Clear
9:53 PM 73.0 °F - 64.9 °F 76% 29.99 in 10.0 mi Variable 3.5 mph - N/A   Clear
11:53 PM 70.0 °F - 66.0 °F 87% 29.97 in 10.0 mi Variable 3.5 mph - N/A   Clear